Location: Coed Ely
(51.5661°N, 3.4150°W)
Time: 02:15:29
(UTC+00:00)

Ariane Rocket - Pass Details

Date: 28 January 2021
Orbit: 760 x 770 km, 98.7° (Epoch: 28 February)

Event Time Altitude Azimuth Distance (km) Brightness Sun altitude
Exits shadow 19:51:35 44° 3° (N) 1,054 3.6 -27.1°
Drops below altitude 10° 19:55:08 10° 348° (NNW) 2,323 5.7 -27.7°
Sets 19:57:27 0° 347° (NNW) 3,255 6.5 -28.0°
